sat.trackr.live / text

‹ back to catalog

STARLINK-34120

NORAD 63898 · 2025-095J

PAYLOAD ACTIVE UNKNOWN

§ Identity

Operator
Country
US
Launch date
2025-05-10
Launch site
AFETR
Launch vehicle
Mass (kg)
RCS (m²)

Purposes: comms

External: N2YO · Heavens-Above · Gunter

§ Orbital elements

Epoch: 2026-05-25T04:40:33.058848Z

Period
94.27 min
Inclination
43.0016°
Eccentricity
0.0001310
Mean motion
15.27589686 rev/d
Perigee alt
482.1 km
Apogee alt
483.9 km
Semi-major
6,861.2 km
B*
1.0161e-3
RAAN
103.6953°
Arg perigee
278.1059°
Mean anomaly
81.9644°
Rev number
5,949

§ Raw data

STARLINK-341201 63898U 25095J   26145.19482707  .00027812  00000+0  10161-2 0  99912 63898  43.0016 103.6953 0001310 278.1059  81.9644 15.27589686 59490

JSON: /api/v1/satellites/63898 · /tle

For live sub-satellite position, see the globe view (requires WebGL).

§ Visibility from observer

Set your observer location to see the next 7 days of passes ≥ 10°. The values pass through the URL so the page stays shareable.

No JS? Fill the form by hand. The geolocation button needs JavaScript.